GLD1793 SBPS-SBCF

Flight info

Callsign GLD1793
Flight time 0h 57m
Altitude 36000
Route EDRA1A EDRAG DCT DORDU DCT OPTEB ALON1A
Aircraft B738/M-SDFGIRY/S

Departure

Time 2026-04-22 22:28
Airport Porto Seguro International Airport (SBPS)

Arrival

Time 2026-04-22 23:26
Airport Tancredo Neves International Airport (SBCF)
Time Latitude Longitude Altitude Speed Heading
2026-04-22 22:16 -16.44055 -39.08067 171 ft 0 kts 166°
2026-04-22 22:19 -16.44052 -39.08068 171 ft 2 kts 166°
2026-04-22 22:19 -16.44036 -39.08072 171 ft 2 kts 167°
2026-04-22 22:20 -16.44020 -39.08075 171 ft 2 kts 180°
2026-04-22 22:20 -16.44008 -39.08069 171 ft 1 kts 254°
2026-04-22 22:20 -16.44007 -39.08066 171 ft 0 kts 255°
2026-04-22 22:24 -16.44007 -39.08067 171 ft 2 kts 255°
2026-04-22 22:24 -16.44020 -39.08117 171 ft 9 kts 255°
2026-04-22 22:25 -16.44038 -39.08188 172 ft 12 kts 255°
2026-04-22 22:25 -16.44049 -39.08280 173 ft 14 kts 298°
2026-04-22 22:25 -16.43963 -39.08315 172 ft 13 kts 338°
2026-04-22 22:25 -16.43936 -39.08395 172 ft 17 kts 257°
2026-04-22 22:26 -16.43970 -39.08524 174 ft 18 kts 254°
2026-04-22 22:26 -16.44005 -39.08651 175 ft 18 kts 253°
2026-04-22 22:26 -16.44040 -39.08771 177 ft 17 kts 253°
2026-04-22 22:26 -16.44074 -39.08888 180 ft 17 kts 253°
2026-04-22 22:27 -16.44052 -39.08963 180 ft 4 kts 290°
2026-04-22 22:27 -16.44068 -39.08979 180 ft 4 kts 176°
2026-04-22 22:27 -16.44075 -39.08956 180 ft 4 kts 83°
2026-04-22 22:27 -16.44074 -39.08917 180 ft 11 kts 78°
2026-04-22 22:28 -16.44025 -39.08731 176 ft 68 kts 73°
2026-04-22 22:28 -16.43797 -39.07882 219 ft 168 kts 75°
2026-04-22 22:28 -16.43437 -39.06632 1275 ft 189 kts 77°
2026-04-22 22:28 -16.43082 -39.05283 2531 ft 195 kts 84°
2026-04-22 22:29 -16.43304 -39.03904 3588 ft 206 kts 122°
2026-04-22 22:29 -16.44409 -39.02862 4273 ft 233 kts 154°
2026-04-22 22:29 -16.46084 -39.02477 4820 ft 259 kts 177°
2026-04-22 22:29 -16.47910 -39.02480 5848 ft 265 kts 179°
2026-04-22 22:30 -16.49763 -39.02502 6994 ft 265 kts 179°
2026-04-22 22:30 -16.51645 -39.02515 7933 ft 275 kts 179°
2026-04-22 22:30 -16.53601 -39.02518 8815 ft 286 kts 179°
2026-04-22 22:30 -16.55613 -39.02509 9802 ft 293 kts 179°
2026-04-22 22:31 -16.57691 -39.02494 10563 ft 308 kts 180°
2026-04-22 22:31 -16.59941 -39.02482 10837 ft 337 kts 182°
2026-04-22 22:31 -16.62251 -39.03021 11505 ft 346 kts 207°
2026-04-22 22:31 -16.64167 -39.04498 12405 ft 345 kts 229°
2026-04-22 22:32 -16.65711 -39.06425 13350 ft 347 kts 234°
2026-04-22 22:32 -16.67214 -39.08413 14165 ft 352 kts 234°
2026-04-22 22:32 -16.68732 -39.10442 14903 ft 357 kts 234°
2026-04-22 22:32 -16.70256 -39.12468 15623 ft 362 kts 233°
2026-04-22 22:33 -16.71834 -39.14549 16324 ft 368 kts 232°
2026-04-22 22:33 -16.73443 -39.16658 17001 ft 374 kts 232°
2026-04-22 22:33 -16.75079 -39.18792 17669 ft 380 kts 232°
2026-04-22 22:33 -16.76743 -39.20958 18336 ft 385 kts 231°
2026-04-22 22:34 -16.78427 -39.23150 18953 ft 388 kts 231°
2026-04-22 22:34 -16.80124 -39.25359 19555 ft 392 kts 231°
2026-04-22 22:34 -16.81839 -39.27593 20142 ft 396 kts 231°
2026-04-22 22:34 -16.83565 -39.29842 20767 ft 398 kts 231°
2026-04-22 22:35 -16.85303 -39.32107 21386 ft 401 kts 232°
2026-04-22 22:35 -16.86986 -39.34397 21928 ft 405 kts 238°
2026-04-22 22:35 -16.88058 -39.37115 22445 ft 407 kts 258°
2026-04-22 22:35 -16.88616 -39.40023 23055 ft 409 kts 260°
2026-04-22 22:36 -16.89128 -39.42955 23629 ft 412 kts 261°
2026-04-22 22:36 -16.89643 -39.45908 24096 ft 414 kts 260°
2026-04-22 22:36 -16.90178 -39.48862 24650 ft 414 kts 259°
2026-04-22 22:36 -16.90733 -39.51825 25109 ft 417 kts 258°
2026-04-22 22:37 -16.91267 -39.54823 25535 ft 421 kts 259°
2026-04-22 22:37 -16.91818 -39.57828 26021 ft 422 kts 258°
2026-04-22 22:37 -16.92401 -39.60843 26456 ft 426 kts 257°
2026-04-22 22:37 -16.92986 -39.63850 26857 ft 429 kts 257°
2026-04-22 22:38 -16.93579 -39.66918 27312 ft 431 kts 257°
2026-04-22 22:38 -16.94167 -39.69997 27773 ft 433 kts 257°
2026-04-22 22:38 -16.94756 -39.73091 28209 ft 436 kts 257°
2026-04-22 22:38 -16.95346 -39.76209 28618 ft 439 kts 256°
2026-04-22 22:39 -16.95932 -39.79343 29013 ft 441 kts 256°
2026-04-22 22:39 -16.96524 -39.82506 29402 ft 444 kts 256°
2026-04-22 22:39 -16.97118 -39.85682 29759 ft 447 kts 256°
2026-04-22 22:39 -16.97717 -39.88882 30146 ft 450 kts 256°
2026-04-22 22:40 -16.98335 -39.92100 30467 ft 452 kts 254°
2026-04-22 22:40 -16.99048 -39.95300 30774 ft 454 kts 253°
2026-04-22 22:40 -16.99818 -39.98502 31082 ft 456 kts 252°
2026-04-22 22:40 -17.00610 -40.01719 31388 ft 458 kts 252°
2026-04-22 22:41 -17.01405 -40.04951 31673 ft 461 kts 252°
2026-04-22 22:41 -17.02195 -40.08203 31950 ft 463 kts 252°
2026-04-22 22:41 -17.02983 -40.11483 32218 ft 466 kts 252°
2026-04-22 22:41 -17.03766 -40.14779 32500 ft 468 kts 252°
2026-04-22 22:42 -17.04535 -40.18036 32848 ft 468 kts 252°
2026-04-22 22:42 -17.05312 -40.21343 33279 ft 467 kts 252°
2026-04-22 22:42 -17.06082 -40.24628 33728 ft 465 kts 251°
2026-04-22 22:42 -17.06851 -40.27910 34138 ft 464 kts 251°
2026-04-22 22:43 -17.07620 -40.31193 34430 ft 465 kts 251°
2026-04-22 22:43 -17.08391 -40.34479 34765 ft 464 kts 251°
2026-04-22 22:43 -17.09157 -40.37748 35150 ft 463 kts 251°
2026-04-22 22:43 -17.09919 -40.41009 35555 ft 460 kts 251°
2026-04-22 22:44 -17.10679 -40.44257 35940 ft 459 kts 251°
2026-04-22 22:44 -17.11438 -40.47499 36100 ft 463 kts 251°
2026-04-22 22:44 -17.12208 -40.50783 36098 ft 466 kts 251°
2026-04-22 22:45 -17.13731 -40.57311 36090 ft 461 kts 251°
2026-04-22 22:45 -17.15236 -40.63782 36093 ft 457 kts 251°
2026-04-22 22:46 -17.16741 -40.70246 36096 ft 458 kts 251°
2026-04-22 22:46 -17.18246 -40.76719 36093 ft 458 kts 251°
2026-04-22 22:47 -17.19749 -40.83193 36102 ft 459 kts 251°
2026-04-22 22:47 -17.21254 -40.89689 36100 ft 460 kts 251°
2026-04-22 22:48 -17.22758 -40.96196 36097 ft 460 kts 251°
2026-04-22 22:48 -17.24262 -41.02709 36095 ft 461 kts 251°
2026-04-22 22:49 -17.25757 -41.09191 36095 ft 461 kts 251°
2026-04-22 22:49 -17.27260 -41.15725 36099 ft 461 kts 251°
2026-04-22 22:50 -17.28763 -41.22265 36106 ft 461 kts 251°
2026-04-22 22:50 -17.30261 -41.28796 36104 ft 461 kts 251°
2026-04-22 22:51 -17.31745 -41.35272 36101 ft 460 kts 251°
2026-04-22 22:51 -17.33229 -41.41766 36097 ft 454 kts 251°
2026-04-22 22:52 -17.34684 -41.48149 36111 ft 448 kts 251°
2026-04-22 22:52 -17.35887 -41.53413 36123 ft 448 kts 251°
2026-04-22 22:53 -17.37335 -41.59764 36112 ft 448 kts 251°
2026-04-22 22:53 -17.38777 -41.66103 36123 ft 448 kts 251°
2026-04-22 22:54 -17.40221 -41.72465 36122 ft 449 kts 251°
2026-04-22 22:54 -17.41664 -41.78829 36130 ft 449 kts 252°
2026-04-22 22:55 -17.43104 -41.85196 36117 ft 449 kts 252°
2026-04-22 22:55 -17.45261 -41.94745 36126 ft 449 kts 252°
2026-04-22 22:56 -17.47483 -42.00737 36126 ft 437 kts 234°
2026-04-22 22:56 -17.51106 -42.05706 36130 ft 430 kts 224°
2026-04-22 22:57 -17.55057 -42.10421 36127 ft 432 kts 224°
2026-04-22 22:57 -17.59084 -42.15245 36134 ft 445 kts 225°
2026-04-22 22:58 -17.63176 -42.20207 36126 ft 452 kts 225°
2026-04-22 22:58 -17.67268 -42.25201 36128 ft 452 kts 225°
2026-04-22 22:59 -17.71366 -42.30210 36119 ft 452 kts 225°
2026-04-22 22:59 -17.75461 -42.35216 36115 ft 452 kts 225°
2026-04-22 23:00 -17.79554 -42.40220 36119 ft 451 kts 225°
2026-04-22 23:00 -17.83644 -42.45224 36112 ft 451 kts 225°
2026-04-22 23:01 -17.87705 -42.50197 36117 ft 451 kts 225°
2026-04-22 23:01 -17.91786 -42.55198 36117 ft 451 kts 225°
2026-04-22 23:02 -17.95863 -42.60197 36114 ft 451 kts 226°
2026-04-22 23:02 -17.99939 -42.65200 36107 ft 451 kts 226°
2026-04-22 23:03 -18.04017 -42.70210 36114 ft 450 kts 226°
2026-04-22 23:03 -18.08295 -42.74984 36124 ft 447 kts 219°
2026-04-22 23:04 -18.12960 -42.79303 36119 ft 447 kts 218°
2026-04-22 23:04 -18.17621 -42.83569 36112 ft 447 kts 218°
2026-04-22 23:05 -18.22278 -42.87905 36112 ft 447 kts 218°
2026-04-22 23:05 -18.26919 -42.92270 36124 ft 447 kts 219°
2026-04-22 23:06 -18.31558 -42.96647 36112 ft 448 kts 219°
2026-04-22 23:06 -18.36199 -43.01027 36120 ft 448 kts 219°
2026-04-22 23:07 -18.40807 -43.05378 36111 ft 446 kts 219°
2026-04-22 23:07 -18.45429 -43.09746 36116 ft 446 kts 219°
2026-04-22 23:08 -18.50050 -43.14115 36122 ft 446 kts 219°
2026-04-22 23:08 -18.52361 -43.16302 36017 ft 448 kts 219°
2026-04-22 23:08 -18.54701 -43.18515 35329 ft 453 kts 219°
2026-04-22 23:09 -18.57036 -43.20726 34571 ft 451 kts 219°
2026-04-22 23:09 -18.59376 -43.22943 33711 ft 453 kts 219°
2026-04-22 23:09 -18.61721 -43.25165 32782 ft 455 kts 219°
2026-04-22 23:09 -18.64081 -43.27402 31872 ft 456 kts 219°
2026-04-22 23:10 -18.66448 -43.29646 30914 ft 459 kts 219°
2026-04-22 23:10 -18.68839 -43.31914 29843 ft 463 kts 219°
2026-04-22 23:10 -18.71243 -43.34195 28629 ft 466 kts 220°
2026-04-22 23:10 -18.73623 -43.36454 27489 ft 468 kts 220°
2026-04-22 23:11 -18.76078 -43.38786 26289 ft 470 kts 220°
2026-04-22 23:11 -18.78503 -43.41091 25350 ft 467 kts 221°
2026-04-22 23:11 -18.80874 -43.43346 24452 ft 464 kts 221°
2026-04-22 23:11 -18.83264 -43.45620 23529 ft 461 kts 221°
2026-04-22 23:12 -18.85640 -43.47881 22512 ft 458 kts 221°
2026-04-22 23:12 -18.87990 -43.50118 21614 ft 452 kts 221°
2026-04-22 23:12 -18.90317 -43.52334 20723 ft 447 kts 221°
2026-04-22 23:12 -18.92616 -43.54525 19851 ft 443 kts 221°
2026-04-22 23:13 -18.94886 -43.56688 18982 ft 439 kts 221°
2026-04-22 23:13 -18.97152 -43.58848 18057 ft 436 kts 221°
2026-04-22 23:13 -18.99394 -43.60986 17111 ft 432 kts 221°
2026-04-22 23:13 -19.01623 -43.63087 16238 ft 427 kts 219°
2026-04-22 23:14 -19.03933 -43.65024 15457 ft 420 kts 216°
2026-04-22 23:14 -19.06270 -43.66839 14694 ft 414 kts 214°
2026-04-22 23:14 -19.08586 -43.68603 13937 ft 409 kts 214°
2026-04-22 23:14 -19.10883 -43.70363 13071 ft 404 kts 215°
2026-04-22 23:15 -19.13141 -43.72113 12283 ft 399 kts 216°
2026-04-22 23:15 -19.15346 -43.73839 11540 ft 393 kts 216°
2026-04-22 23:15 -19.17520 -43.75551 11073 ft 380 kts 216°
2026-04-22 23:15 -19.19553 -43.77157 10782 ft 351 kts 216°
2026-04-22 23:16 -19.21449 -43.78654 10551 ft 327 kts 216°
2026-04-22 23:16 -19.23213 -43.80047 10393 ft 305 kts 216°
2026-04-22 23:16 -19.24848 -43.81337 10267 ft 291 kts 216°
2026-04-22 23:16 -19.26417 -43.82630 10143 ft 281 kts 221°
2026-04-22 23:17 -19.27794 -43.84083 9856 ft 279 kts 226°
2026-04-22 23:17 -19.29103 -43.85588 9523 ft 278 kts 227°
2026-04-22 23:17 -19.30405 -43.87098 9198 ft 277 kts 226°
2026-04-22 23:17 -19.31706 -43.88594 8864 ft 276 kts 226°
2026-04-22 23:18 -19.33014 -43.90084 8525 ft 276 kts 226°
2026-04-22 23:18 -19.34329 -43.91571 8151 ft 277 kts 226°
2026-04-22 23:18 -19.35654 -43.93065 7744 ft 280 kts 225°
2026-04-22 23:18 -19.36982 -43.94557 7544 ft 274 kts 225°
2026-04-22 23:19 -19.38272 -43.96007 7393 ft 266 kts 225°
2026-04-22 23:19 -19.39525 -43.97413 7277 ft 258 kts 225°
2026-04-22 23:19 -19.40720 -43.98754 7168 ft 250 kts 225°
2026-04-22 23:19 -19.41895 -44.00072 7063 ft 242 kts 225°
2026-04-22 23:20 -19.43036 -44.01352 6948 ft 235 kts 225°
2026-04-22 23:20 -19.44122 -44.02633 6743 ft 231 kts 227°
2026-04-22 23:20 -19.45165 -44.03898 6519 ft 224 kts 227°
2026-04-22 23:20 -19.46180 -44.05128 6264 ft 218 kts 227°
2026-04-22 23:21 -19.47163 -44.06317 6008 ft 212 kts 227°
2026-04-22 23:21 -19.48125 -44.07480 5783 ft 207 kts 226°
2026-04-22 23:21 -19.49211 -44.08388 5656 ft 193 kts 194°
2026-04-22 23:21 -19.50432 -44.08279 5584 ft 175 kts 151°
2026-04-22 23:22 -19.51453 -44.07617 5386 ft 170 kts 145°
2026-04-22 23:22 -19.52429 -44.06914 5166 ft 166 kts 143°
2026-04-22 23:22 -19.53325 -44.06184 5002 ft 163 kts 139°
2026-04-22 23:22 -19.54187 -44.05410 4821 ft 163 kts 138°
2026-04-22 23:23 -19.55041 -44.04620 4596 ft 164 kts 137°
2026-04-22 23:23 -19.55892 -44.03828 4393 ft 160 kts 137°
2026-04-22 23:23 -19.56717 -44.03060 4202 ft 156 kts 137°
2026-04-22 23:23 -19.57514 -44.02319 3976 ft 148 kts 137°
2026-04-22 23:24 -19.58261 -44.01625 3790 ft 138 kts 137°
2026-04-22 23:24 -19.58971 -44.00963 3633 ft 137 kts 136°
2026-04-22 23:24 -19.59686 -44.00297 3484 ft 139 kts 136°
2026-04-22 23:24 -19.60409 -43.99620 3270 ft 136 kts 137°
2026-04-22 23:25 -19.61122 -43.98964 3092 ft 136 kts 137°
2026-04-22 23:25 -19.61819 -43.98311 2989 ft 131 kts 136°
2026-04-22 23:25 -19.62509 -43.97682 2830 ft 131 kts 137°
2026-04-22 23:25 -19.63115 -43.97113 2810 ft 94 kts 138°
2026-04-22 23:26 -19.63444 -43.96805 2801 ft 31 kts 138°
2026-04-22 23:26 -19.63542 -43.96686 2811 ft 15 kts 122°
2026-04-22 23:26 -19.63584 -43.96601 2814 ft 13 kts 114°
2026-04-22 23:26 -19.63607 -43.96527 2811 ft 3 kts 90°
2026-04-22 23:27 -19.63610 -43.96505 2816 ft 3 kts 110°
2026-04-22 23:27 -19.63625 -43.96471 2815 ft 6 kts 116°
2026-04-22 23:27 -19.63643 -43.96421 2816 ft 8 kts 107°
2026-04-22 23:27 -19.63621 -43.96366 2812 ft 8 kts 40°
2026-04-22 23:28 -19.63572 -43.96334 2815 ft 8 kts 29°
2026-04-22 23:28 -19.63521 -43.96308 2813 ft 8 kts 23°
2026-04-22 23:28 -19.63470 -43.96298 2814 ft 8 kts 332°
2026-04-22 23:28 -19.63434 -43.96339 2814 ft 8 kts 300°
2026-04-22 23:29 -19.63405 -43.96390 2811 ft 8 kts 303°
2026-04-22 23:29 -19.63369 -43.96433 2811 ft 8 kts 324°
2026-04-22 23:29 -19.63336 -43.96413 2813 ft 0 kts 86°
2026-04-22 23:29 -19.63334 -43.96409 2814 ft 2 kts 70°
2026-04-22 23:30 -19.63324 -43.96401 2813 ft 3 kts 28°
2026-04-22 23:30 -19.63314 -43.96396 2813 ft 0 kts 27°